Wind_Speed
17 19 21 23 24 26 25 25 25 26 27 29 32 34 35 36 38 38 39 38 36 34 31 25 15 8 12 17 18 18 17 16 16 17 18 18 18 18 18 17 16 15 14 14 13 12 10 10 14 15 14 13 11 7 5 5 6 5 5 5 6 8 9 10 12 12 11 10 9 8 7 7 8 8 7 7 6 6 5 4 5 6 6 6 8
15 15 17 20 23 25 26 24 24 25 27 29 31 33 35 37 39 40 41 41 40 39 39 38 35 27 15 7 12 17 19 19 18 18 19 20 20 20 20 20 19 17 16 15 14 14 15 17 18 18 17 16 15 13 9 8 7 6 6 6 6 7 9 11 12 13 13 13 11 10 9 8 9 9 9 8 7 6 5 4 4 5 5 5 5
15 15 14 15 17 20 22 23 22 22 22 23 26 29 31 33 34 36 38 39 41 41 42 42 42 41 36 26 14 6 13 18 20 19 18 19 20 21 21 21 21 20 19 18 17 17 19 20 19 18 18 17 17 17 13 11 9 7 7 7 7 7 9 11 13 14 15 15 14 12 11 10 9 10 10 9 9 8 6 5 4 4 4 5 5
15 15 15 14 13 14 16 18 19 17 16 18 22 26 29 31 33 34 35 36 37 39 40 41 42 42 42 41 36 26 14 7 14 18 19 19 20 21 22 22 22 22 22 22 22 22 22 22 21 20 19 17 17 18 16 13 10 9 7 8 9 8 8 10 12 14 16 16 16 15 14 12 11 11 11 11 10 9 8 7 5 4 4 4 5
16 15 14 15 15 15 16 16 15 13 13 15 17 21 25 29 31 32 34 35 36 36 37 38 39 40 40 40 41 39 34 25 14 8 13 18 20 21 22 23 23 24 24 25 26 27 26 23 23 23 20 18 17 17 17 15 13 12 10 8 9 11 11 10 11 13 15 17 18 18 17 15 13 12 12 12 12 11 10 8 7 6 4 4 5
19 17 16 15 15 16 17 18 14 10 10 12 13 16 21 27 30 31 32 33 34 35 36 36 35 36 37 38 38 39 39 38 33 25 15 10 14 19 22 23 24 25 25 26 28 30 29 26 26 26 23 21 18 17 18 18 17 14 13 11 9 11 14 13 12 12 13 17 19 19 19 18 16 14 14 13 13 13 12 10 9 8 6 5 4
20 19 18 18 17 16 17 18 16 10 7 9 10 12 19 25 30 31 30 29 30 33 35 35 35 34 34 34 35 36 37 37 37 36 32 24 15 11 16 21 24 25 26 28 28 30 31 30 29 28 27 25 22 20 19 19 18 17 16 12 9 12 15 16 16 14 13 15 19 20 21 20 19 18 16 15 14 14 13 12 10 9 8 6 5
19 19 19 19 19 17 16 17 17 13 9 8 9 11 18 24 29 30 29 27 27 30 32 34 35 35 34 34 34 34 34 35 35 36 36 34 29 22 13 13 20 26 27 29 30 31 31 31 31 30 30 29 26 23 21 19 18 18 17 11 9 13 17 19 20 18 16 15 16 19 21 22 22 20 19 17 16 16 15 14 12 11 10 8 7
20 19 19 19 19 19 17 17 17 15 12 10 10 12 17 24 28 28 28 26 25 27 30 32 34 34 34 34 35 35 35 35 35 35 34 34 33 32 28 19 11 18 26 30 32 33 33 32 32 32 32 31 29 27 24 21 19 18 15 11 12 17 19 22 25 23 20 18 15 15 16 20 22 22 21 19 18 17 17 16 15 13 12 11 9
20 20 20 19 19 19 18 16 16 15 14 12 11 13 17 23 25 26 26 25 24 27 30 31 32 33 34 34 35 35 36 37 37 37 36 34 32 32 32 32 26 16 15 26 32 34 35 34 33 32 34 34 32 30 28 24 21 19 16 16 18 22 23 25 28 27 25 23 20 18 16 15 20 23 24 22 21 20 19 18 17 16 14 13 12
21 20 20 19 18 18 18 15 14 14 14 14 13 14 16 19 21 22 22 22 24 27 29 31 32 33 34 35 35 36 36 36 37 38 39 39 37 33 32 32 34 32 23 14 25 34 36 36 35 34 34 35 35 32 30 28 25 21 19 21 26 27 28 30 30 30 29 27 24 22 20 16 17 22 25 25 24 23 22 21 20 19 17 15 14
22 21 20 19 17 16 16 15 14 14 15 15 15 14 14 15 16 18 20 22 25 27 28 30 32 33 34 35 36 37 37 37 37 38 39 40 40 39 36 33 32 35 36 28 16 23 35 38 37 37 36 35 36 35 33 31 29 26 24 27 31 32 32 33 32 31 31 30 27 25 24 22 21 22 24 26 26 26 24 23 22 21 19 17 16
22 22 20 19 17 15 14 13 13 14 15 17 18 18 17 16 17 18 20 22 24 26 28 30 31 33 34 34 36 37 37 37 37 37 38 38 40 40 40 37 34 33 35 37 33 21 21 35 39 38 39 38 36 36 36 34 32 32 32 32 33 33 34 35 33 32 31 31 30 29 29 28 26 24 23 23 25 27 26 25 24 22 21 20 18
22 22 22 20 19 16 14 14 13 13 14 16 19 21 21 21 21 21 22 23 24 26 28 29 31 33 34 35 36 37 37 37 37 37 37 37 38 39 40 40 38 35 33 35 38 38 24 18 35 40 39 40 39 38 37 36 36 38 39 38 35 35 35 35 35 34 32 31 31 32 32 32 30 26 24 21 22 26 28 28 27 25 24 22 21
23 24 24 23 21 18 16 16 16 15 15 17 19 21 23 24 24 23 23 25 26 27 28 29 31 32 34 35 36 37 37 37 37 37 38 38 37 38 39 40 40 38 36 34 35 38 38 26 16 32 40 40 40 40 40 38 38 40 43 43 40 39 38 36 36 36 34 32 32 33 33 34 33 30 27 24 22 24 28 30 30 28 27 25 23
24 25 25 25 23 21 19 18 17 16 17 19 21 22 23 25 27 26 27 28 29 30 30 30 31 32 33 35 36 37 37 37 37 37 38 38 38 38 38 39 40 40 38 36 36 36 38 38 28 14 28 39 41 41 41 41 41 42 44 46 44 43 42 39 38 39 38 36 36 35 35 35 36 34 31 28 25 25 26 30 32 31 30 28 26
26 26 26 26 25 23 20 18 17 17 19 21 22 24 25 26 28 29 31 32 33 34 33 33 33 33 34 35 36 37 37 37 37 37 38 39 39 39 38 38 39 40 40 37 37 38 37 37 37 30 16 23 37 42 42 42 43 44 46 47 47 47 46 43 42 42 41 40 40 39 37 37 38 37 35 32 29 27 27 29 32 33 32 31 29
27 28 27 27 25 22 19 17 17 19 21 22 24 25 26 27 29 31 33 35 36 37 36 36 36 36 37 37 36 36 37 38 38 38 39 39 39 39 38 38 39 39 39 38 36 37 37 37 36 35 32 23 18 31 42 44 44 45 47 48 50 50 50 49 47 45 44 43 41 40 40 39 39 39 38 36 33 31 29 28 30 34 35 34 32
28 29 29 28 27 23 20 19 20 22 24 24 25 26 27 28 30 32 35 37 38 39 39 39 38 38 39 39 38 37 37 38 39 39 40 40 40 39 39 38 38 39 39 38 37 37 37 37 36 35 36 36 31 22 26 39 46 47 48 49 51 53 53 53 53 50 48 47 45 43 42 41 41 41 40 39 37 34 32 31 31 33 35 36 35
29 29 30 30 30 27 23 23 24 25 27 28 27 27 27 29 31 33 36 38 39 40 40 40 40 40 41 41 40 39 39 39 40 40 41 40 40 39 39 39 38 38 39 38 37 37 38 39 37 34 35 38 39 36 29 25 36 47 51 52 52 54 55 56 57 56 53 51 50 49 47 45 43 43 41 40 39 37 35 35 34 33 33 35 36
29 30 31 31 31 29 26 25 26 28 30 30 29 29 29 30 32 35 37 38 40 41 41 42 41 41 42 43 42 40 41 42 41 41 41 41 40 39 40 39 38 38 40 39 37 38 39 41 38 34 34 38 39 39 38 34 29 35 47 54 56 57 57 58 59 60 59 57 55 54 53 50 47 45 44 42 42 41 40 39 36 33 31 34 36
31 31 32 32 33 31 27 26 27 30 30 30 30 30 31 32 34 37 38 39 41 42 42 43 43 43 43 44 43 42 43 44 43 42 41 40 39 40 40 40 40 40 40 38 38 39 40 40 38 36 37 40 41 40 40 40 37 32 37 47 56 59 61 61 61 62 62 62 61 59 57 56 54 50 47 46 45 44 44 43 39 35 33 33 35
32 31 32 33 34 33 30 28 29 31 31 30 31 32 33 35 37 39 41 41 42 43 44 44 44 44 45 45 44 45 45 45 45 44 42 40 39 40 40 40 40 39 39 39 40 40 39 40 41 43 44 45 47 46 45 44 42 36 34 39 48 56 61 64 65 64 65 65 65 64 62 60 59 56 51 49 48 47 47 46 44 40 37 35 35
33 32 33 33 34 35 33 31 31 33 33 32 32 34 35 37 39 41 43 43 44 45 45 45 45 45 46 46 46 47 47 47 47 45 43 42 41 41 41 40 38 38 39 39 40 40 41 44 47 49 49 50 51 52 52 50 45 39 35 37 42 49 57 63 67 68 68 68 68 68 68 66 64 61 57 53 52 51 49 49 49 47 43 40 37
34 34 35 35 36 36 35 34 33 34 36 36 36 37 38 39 41 43 44 44 45 46 46 46 46 46 46 47 48 48 48 48 48 46 44 43 42 41 41 39 38 38 39 40 40 43 47 49 51 53 53 54 55 57 58 54 46 39 35 36 40 45 50 57 65 70 72 72 71 71 71 71 69 67 63 59 57 55 53 52 51 51 50 47 41
36 36 37 38 38 38 36 35 35 36 38 40 40 41 42 42 43 43 44 45 46 46 47 47 47 46 47 49 49 49 49 49 48 46 44 43 43 42 41 40 41 42 42 43 46 48 51 52 55 56 56 57 58 60 59 52 43 39 36 35 38 41 45 51 59 67 73 75 75 75 75 75 74 73 69 65 62 60 57 55 54 53 53 53 48
38 39 39 40 40 40 39 38 37 38 41 43 45 45 45 45 45 45 46 46 46 46 47 48 47 47 49 50 50 50 50 50 49 47 45 43 42 42 43 44 46 47 48 50 52 53 54 56 58 59 59 58 59 60 57 49 42 39 38 37 38 39 42 47 53 61 69 76 79 78 78 77 77 77 75 71 67 65 62 59 58 56 55 56 54
39 40 41 41 42 43 42 41 40 40 42 45 47 47 47 47 47 47 47 47 46 47 48 48 48 49 50 51 51 51 51 51 49 46 44 45 45 45 47 49 51 52 54 55 57 58 61 62 61 60 60 59 58 58 54 48 44 42 40 40 40 40 41 45 50 56 63 72 79 82 82 80 80 80 79 77 72 70 67 65 62 60 59 58 56
41 41 41 42 43 44 44 43 42 42 43 46 47 48 49 49 48 47 48 48 48 48 48 49 50 51 52 52 52 52 53 51 48 47 49 52 52 52 53 55 56 57 59 61 63 65 67 66 62 60 60 59 58 56 53 50 49 48 46 44 44 45 45 46 49 54 59 66 75 83 86 84 83 82 82 81 78 75 72 70 67 65 63 61 59
43 44 44 45 45 45 45 44 43 42 43 45 46 48 50 51 50 49 49 49 49 49 50 51 51 52 52 52 52 53 53 50 48 51 56 58 57 57 58 59 59 61 64 67 70 71 68 65 62 60 59 59 58 57 56 56 56 55 52 50 49 48 47 47 49 52 57 62 68 78 86 89 87 85 84 84 82 79 76 74 73 70 67 65 63
47 47 47 48 48 46 45 44 43 43 44 45 47 48 48 49 50 50 50 49 49 50 51 51 52 53 53 53 53 53 52 51 52 57 59 60 59 60 60 61 63 65 67 69 70 70 67 63 61 59 58 58 59 60 60 61 62 61 58 56 53 50 49 49 49 51 56 61 65 71 81 89 91 89 87 86 85 83 81 78 77 76 72 68 66
50 50 50 50 49 47 46 45 44 44 46 48 49 49 47 47 49 49 49 48 49 50 51 52 53 54 54 53 52 52 53 54 57 59 60 60 60 61 63 65 67 68 69 68 66 66 65 61 58 58 59 60 62 64 65 65 66 66 65 62 56 53 51 50 51 52 55 60 64 67 74 84 92 94 91 89 88 86 84 82 80 79 78 74 70
52 52 51 50 48 46 46 46 46 47 49 50 50 49 48 48 48 48 48 49 49 50 51 53 54 54 53 52 52 54 56 57 58 60 62 63 64 66 68 69 69 69 68 66 63 61 59 57 56 59 62 64 65 68 69 70 71 70 70 67 61 56 52 51 51 52 55 59 63 66 69 77 87 94 95 92 90 89 87 85 83 81 81 79 74
53 52 51 49 47 46 47 48 49 51 51 50 48 48 48 48 48 48 49 50 51 51 52 53 54 53 53 53 55 57 59 60 62 65 68 70 72 72 72 72 71 70 67 63 61 57 54 55 59 62 66 67 69 72 74 75 75 74 72 69 62 56 53 51 50 52 54 58 62 65 68 72 80 89 96 96 94 92 90 88 86 84 82 81 78
53 52 50 47 46 46 47 48 51 52 50 49 48 48 48 49 49 50 51 51 51 52 53 53 52 52 53 56 58 62 66 69 72 74 76 77 78 77 76 75 72 68 65 60 56 54 55 59 63 66 68 71 73 75 77 78 78 77 74 68 61 55 52 50 50 51 54 58 61 64 67 71 75 82 91 96 96 94 92 90 88 86 84 83 82
51 49 47 46 45 45 47 50 52 51 49 49 50 49 50 51 51 51 51 51 53 54 55 54 53 55 59 63 67 71 75 78 80 81 82 82 82 80 77 73 67 63 60 58 56 57 61 64 67 69 72 74 76 78 80 81 81 79 74 66 59 55 52 50 49 50 53 57 61 63 66 69 73 78 85 93 97 97 95 92 90 89 86 85 84
48 46 47 47 46 46 49 52 51 48 48 50 51 52 53 54 53 53 53 54 57 59 60 59 61 63 66 70 74 78 81 83 85 85 85 84 82 79 73 66 61 59 58 59 60 62 66 69 72 75 76 77 80 82 83 84 83 79 72 65 60 55 52 51 49 49 52 57 61 63 65 67 71 75 79 86 94 98 97 95 93 91 89 87 85
47 47 48 48 48 49 51 51 49 49 51 52 53 55 57 57 58 57 58 60 62 64 65 66 67 68 71 76 81 84 85 87 87 87 86 84 79 73 67 61 58 58 60 62 65 68 71 74 77 80 81 82 84 85 85 85 82 76 69 64 61 57 52 51 50 49 51 56 61 64 63 64 67 72 76 81 89 95 98 97 96 94 92 90 87
47 47 46 46 49 53 52 50 52 54 55 55 55 58 60 61 62 62 63 65 67 67 68 69 70 73 77 82 86 88 88 89 88 87 85 80 74 67 63 61 62 64 66 68 71 74 77 79 82 84 85 87 88 87 84 81 76 71 67 64 63 60 54 50 49 50 51 55 61 63 62 61 64 69 75 78 83 91 97 98 98 96 94 92 90
48 48 47 48 52 55 54 55 56 57 57 56 57 58 60 61 63 65 66 67 69 70 71 73 75 80 84 87 89 90 90 89 88 86 81 74 69 65 64 65 66 68 70 73 77 80 83 84 86 88 88 89 89 86 81 75 70 68 68 66 64 60 54 49 48 49 51 55 59 62 61 60 62 68 73 76 79 85 94 98 98 98 96 94 92
50 49 49 52 54 55 57 57 57 57 57 57 58 59 59 61 63 65 66 67 70 74 78 81 84 87 89 91 91 91 90 89 86 81 74 69 66 66 66 67 68 70 73 77 80 84 87 88 89 90 90 89 87 83 77 73 70 69 68 67 63 58 51 48 48 48 50 53 57 60 60 59 61 65 70 74 76 81 89 96 98 98 97 95 93
53 52 53 54 55 57 59 59 59 59 59 59 59 60 61 62 63 65 68 72 77 81 85 88 90 91 91 91 91 90 89 86 80 73 69 67 66 66 67 68 70 73 76 79 83 86 89 91 92 92 91 88 85 80 77 74 72 70 68 65 62 56 49 46 47 48 49 50 53 58 60 59 60 63 68 72 75 77 83 92 96 97 97 96 94
56 56 56 56 58 61 62 62 62 62 63 62 61 59 60 63 66 71 76 81 85 87 89 90 91 91 91 91 90 88 83 76 72 70 68 68 68 69 71 73 75 77 80 83 86 88 91 93 93 92 89 86 82 79 78 76 73 69 65 64 61 54 47 44 44 47 48 49 50 55 59 59 59 62 66 70 74 74 78 86 92 95 96 96 95
60 59 58 60 63 64 62 62 62 63 64 65 63 64 66 70 74 80 83 86 87 88 89 90 90 90 90 89 86 82 75 69 69 69 68 69 71 73 76 77 79 81 84 87 89 91 93 93 93 90 87 83 80 79 78 75 72 67 63 62 59 52 45 42 42 44 47 47 48 53 58 59 58 60 64 69 73 72 73 80 87 92 95 96 96
63 63 62 63 65 65 63 64 65 65 65 66 67 70 73 75 78 81 83 84 86 88 88 88 89 88 86 83 79 75 69 67 68 69 69 71 74 77 79 82 84 86 88 91 93 94 94 92 90 87 83 81 79 79 77 73 70 65 61 59 57 50 43 40 40 41 43 46 47 51 57 59 56 58 64 69 71 69 68 73 81 88 93 96 96
66 66 67 67 68 67 66 66 67 67 67 66 68 70 72 74 77 79 81 83 84 85 86 86 85 82 79 76 73 71 68 67 68 70 73 76 78 81 83 86 88 90 92 93 94 94 92 88 85 83 81 80 79 77 75 71 66 62 59 57 54 47 43 39 38 38 40 44 47 49 55 58 54 56 64 69 69 66 64 69 77 85 92 95 96
68 69 70 70 69 68 68 68 68 67 67 66 67 69 71 73 75 77 79 81 81 82 82 81 79 77 74 71 70 70 70 69 70 73 76 79 82 85 87 90 92 93 94 94 93 91 87 83 82 81 80 80 78 75 72 68 63 58 56 55 50 45 43 40 36 35 37 42 46 48 51 55 55 56 63 66 65 63 63 67 75 83 90 94 96
70 71 71 70 70 69 69 69 68 67 66 66 67 69 71 72 73 75 77 77 78 78 77 76 75 73 70 69 69 70 71 71 72 77 80 82 84 87 90 92 93 93 92 91 89 87 84 82 81 81 80 78 76 73 69 65 59 55 53 51 48 43 42 40 35 33 35 40 45 45 46 53 56 56 59 63 63 64 65 68 74 81 88 94 97
70 71 71 70 70 71 70 68 67 66 67 67 69 69 70 71 72 73 74 75 76 76 76 75 74 71 69 71 72 73 73 75 78 81 83 84 85 87 88 89 90 91 90 88 85 84 84 83 82 81 79 77 73 70 66 61 56 52 50 48 46 41 39 39 35 32 34 38 42 41 42 51 56 54 56 61 65 67 68 68 72 79 86 92 96
71 71 71 71 71 71 69 68 67 67 67 67 68 68 68 69 71 72 74 75 75 76 75 73 71 69 70 72 73 75 78 80 81 81 81 82 83 84 85 87 87 87 85 83 82 82 83 83 83 82 79 75 71 67 63 59 55 51 47 45 44 41 38 37 34 31 32 36 38 37 40 49 54 53 55 61 67 69 68 67 71 77 83 88 92
72 72 72 72 72 70 68 67 66 66 66 66 66 67 68 70 71 72 74 75 75 76 75 72 71 71 72 72 73 77 79 79 77 77 79 80 82 83 84 84 84 82 81 81 81 82 82 83 82 81 78 74 69 65 61 57 54 51 46 43 41 39 38 36 32 30 31 34 35 34 38 47 52 53 56 63 68 69 67 67 69 74 79 85 89
Wind_Direction
42 43 45 45 45 45 47 50 54 55 56 56 56 55 55 56 57 57 57 56 55 54 51 45 32 342 287 274 269 264 260 256 253 250 248 247 248 249 250 251 251 247 245 245 245 242 237 234 233 238 244 233 224 243 282 302 310 314 311 296 272 256 243 237 233 232 235 238 235 226 219 212 207 203 194 185 174 160 143 120 98 90 85 87 93
34 35 39 43 46 46 48 51 55 56 56 56 53 51 50 51 52 53 53 53 53 54 53 52 50 47 35 332 276 265 262 262 260 255 250 248 248 250 250 251 252 251 248 247 246 238 234 236 234 238 247 242 226 224 245 270 278 297 306 302 293 275 259 246 238 235 235 238 241 237 229 222 216 212 208 200 193 181 166 150 119 101 96 95 100
32 29 27 31 38 42 44 48 50 51 53 51 46 45 46 47 48 48 48 48 48 49 49 51 51 51 50 46 33 320 271 264 264 264 259 253 250 250 250 250 251 252 251 249 248 242 236 236 237 241 246 246 234 224 229 247 259 278 299 301 292 284 273 260 248 241 237 236 241 243 239 231 224 219 216 212 204 195 184 176 155 123 110 105 104
32 28 22 17 14 16 22 28 32 35 37 36 36 39 41 42 43 43 43 43 43 42 43 45 47 49 50 50 49 45 30 317 275 269 266 262 257 253 251 250 250 250 251 250 249 247 242 235 236 242 245 243 239 233 228 233 242 253 273 289 288 286 285 276 262 250 243 239 238 242 245 241 233 226 221 218 214 206 198 189 181 158 132 121 111
29 26 20 14 7 1 0 3 9 14 14 15 24 31 32 31 31 32 35 37 38 38 37 38 41 44 47 49 50 50 48 43 28 330 285 273 267 261 255 250 248 248 248 248 248 249 247 240 237 241 242 241 242 240 232 229 231 237 248 265 281 286 287 288 279 262 250 243 240 240 243 245 241 235 227 222 218 213 206 200 194 181 160 139 122
27 24 18 12 6 3 4 4 4 1 359 358 5 17 20 18 16 18 22 27 32 33 33 32 33 36 40 45 48 50 50 49 47 41 24 333 290 275 266 258 252 248 247 247 248 249 249 245 242 241 240 241 241 238 234 230 230 235 243 249 265 281 282 283 283 274 259 247 242 240 240 243 244 240 234 228 224 219 213 208 202 195 182 162 142
23 21 18 14 7 1 3 8 7 0 346 341 345 359 9 9 7 8 12 17 23 27 29 29 29 30 32 35 40 44 48 49 50 48 45 37 16 324 285 271 262 255 251 248 248 250 250 247 245 242 241 241 238 234 232 230 230 233 238 249 268 281 282 279 276 274 267 252 243 239 238 239 241 241 237 232 229 225 219 214 208 203 195 183 170
17 16 14 13 10 4 0 2 4 358 341 324 324 344 359 2 2 3 4 8 14 20 23 25 26 27 27 27 29 33 37 41 45 47 48 46 42 32 3 303 274 264 259 254 251 250 250 248 247 245 243 243 240 235 232 231 231 228 233 249 270 274 277 276 271 267 265 259 247 241 238 238 241 243 242 237 233 230 226 221 215 209 204 199 192
12 10 8 8 9 7 2 358 358 356 346 324 312 330 348 353 356 358 357 359 6 13 16 19 22 23 24 24 23 24 25 28 32 35 39 44 46 44 39 25 336 278 264 260 256 252 249 247 247 246 246 246 243 238 232 230 230 225 224 235 245 248 255 262 263 262 266 267 262 256 248 242 242 245 246 244 239 235 231 228 224 217 210 207 206
7 5 3 2 3 4 2 359 358 357 352 338 319 322 336 345 350 351 352 357 5 11 13 15 17 18 19 19 19 19 19 20 21 22 24 28 35 42 44 41 33 7 293 264 259 256 252 247 244 244 245 246 246 243 237 229 226 223 216 221 232 235 235 242 249 250 253 258 262 268 267 253 244 242 244 244 242 238 234 232 231 226 219 213 212
4 1 359 356 358 2 5 5 5 4 1 353 339 329 330 337 343 346 353 5 12 13 12 13 13 13 14 14 14 14 14 14 14 15 16 17 19 25 34 40 40 34 17 316 267 257 255 250 245 242 242 244 245 245 242 233 225 219 214 220 227 229 229 233 240 242 243 245 250 261 267 262 249 240 239 241 241 239 236 234 233 232 228 221 216
0 358 354 350 349 355 4 12 17 17 16 13 6 355 347 346 349 354 3 11 12 10 10 9 10 9 9 9 9 9 9 9 9 9 10 12 13 14 17 25 33 36 32 20 337 271 255 252 248 243 240 242 243 243 242 237 228 221 220 224 227 227 229 232 236 239 241 241 241 249 256 254 245 236 235 238 241 241 240 237 235 234 233 229 223
355 354 351 344 339 340 349 360 8 13 16 16 14 11 9 7 8 7 7 6 5 4 3 3 4 5 5 4 4 4 3 3 3 3 4 5 7 9 10 12 18 26 31 28 20 354 278 253 249 246 242 240 240 240 241 239 232 227 227 229 229 229 230 232 235 237 240 240 237 239 245 246 239 231 231 238 243 243 243 243 240 237 235 234 231
347 348 347 341 333 329 332 337 342 348 354 359 0 0 0 0 0 0 0 359 359 358 356 357 358 358 359 359 359 359 359 359 358 357 358 359 1 3 6 7 8 11 19 23 22 18 3 281 251 246 245 243 239 238 238 238 234 231 231 231 230 231 232 233 235 237 239 240 239 238 241 245 244 237 231 233 242 243 242 243 243 241 238 235 235
341 342 343 340 332 324 322 326 328 329 331 334 337 341 344 346 349 350 352 353 353 352 351 352 353 352 352 353 353 354 354 354 354 353 352 353 355 357 1 4 4 4 6 13 17 18 19 8 290 251 246 245 243 240 238 237 236 235 236 234 231 231 233 236 236 236 237 238 241 241 241 244 246 244 236 229 235 242 242 241 242 242 240 238 236
337 338 339 339 334 325 319 322 325 325 323 322 322 324 328 333 338 340 342 344 345 346 346 347 348 348 347 347 347 348 348 349 349 349 348 347 349 352 355 358 1 2 0 3 9 11 13 17 12 314 256 247 246 245 242 240 238 237 239 239 236 231 231 237 239 237 236 235 237 240 240 240 242 244 240 233 234 241 243 242 241 241 241 240 238
334 335 336 337 335 328 321 320 324 326 324 322 319 318 319 322 327 331 334 337 339 340 341 342 343 344 344 342 342 342 343 343 343 344 344 343 344 346 350 353 355 358 359 357 0 4 5 7 13 14 341 267 250 247 245 244 241 240 240 241 241 236 233 235 240 240 238 236 236 238 239 238 239 241 241 238 236 240 244 244 242 240 240 241 240
332 332 332 333 332 328 323 317 317 321 324 325 323 318 316 316 320 324 329 332 334 335 337 337 337 339 340 339 338 337 337 338 339 339 339 339 340 341 343 347 350 353 355 355 354 357 359 359 360 6 9 354 294 257 248 246 245 243 243 242 242 241 238 236 238 240 239 238 237 237 237 237 238 238 239 238 237 239 244 246 244 240 238 239 239
330 329 328 328 327 323 319 317 317 319 322 325 324 319 316 315 316 320 324 327 330 331 332 332 333 334 335 336 334 333 334 334 335 336 337 336 335 336 338 340 345 348 350 352 352 351 351 353 352 351 355 359 355 326 274 253 247 245 244 244 243 243 242 239 238 238 237 236 236 236 236 236 236 237 237 236 235 237 241 245 244 240 237 237 237
328 327 326 326 326 321 314 313 316 318 320 322 323 320 317 315 315 317 319 321 324 326 327 328 329 330 331 332 331 330 331 332 332 333 334 334 332 332 334 336 339 344 346 347 348 347 346 344 344 344 345 346 349 349 337 296 262 250 246 245 243 243 243 242 240 239 237 234 233 234 236 236 235 235 235 235 232 232 235 239 239 238 237 237 237
325 325 325 325 325 322 314 310 313 317 318 318 319 317 314 313 314 314 315 316 318 320 321 323 324 326 327 328 328 327 328 330 331 331 331 331 331 329 330 333 336 338 340 342 343 342 340 339 338 337 338 339 339 339 340 335 308 273 256 249 246 244 243 242 241 240 239 236 233 231 233 236 236 235 233 233 231 229 229 234 237 236 235 237 236
323 323 325 325 324 321 315 310 311 316 318 316 314 312 308 307 309 311 311 311 313 316 317 319 321 322 323 324 326 326 327 329 331 331 330 328 327 327 329 331 333 335 335 337 337 336 335 335 335 332 330 330 331 330 329 329 325 306 278 260 252 248 245 243 241 240 239 238 236 232 230 233 236 236 234 232 230 229 228 230 234 235 233 234 235
322 323 324 325 324 321 314 308 308 312 316 315 314 311 307 304 304 306 308 309 310 312 315 317 319 320 320 322 324 325 325 328 330 330 329 327 325 325 327 329 330 331 333 332 331 332 332 331 329 328 326 325 324 324 323 322 319 310 293 275 261 254 250 247 244 242 239 238 237 235 232 231 232 234 234 231 230 230 229 228 229 231 233 234 233
322 322 323 324 325 322 315 307 305 307 310 312 312 312 309 304 303 304 306 307 308 310 314 316 318 318 318 319 322 323 324 326 329 329 327 325 324 324 325 327 327 328 329 328 328 327 326 325 323 323 323 322 321 320 319 318 315 307 294 281 269 259 254 250 247 245 242 239 237 236 235 233 232 232 232 230 229 230 230 228 227 228 231 233 232
322 321 321 323 325 324 318 309 305 305 306 309 311 313 309 305 303 304 306 306 306 308 311 314 316 315 316 318 320 321 323 325 326 326 325 323 322 323 324 325 325 325 324 323 322 321 319 318 319 320 320 319 318 317 316 314 310 303 294 282 271 262 257 254 250 247 244 241 239 236 235 234 234 233 232 229 228 229 230 228 227 226 229 231 229
321 320 320 321 322 323 320 314 308 306 306 308 311 313 310 306 304 304 304 304 304 306 309 312 313 313 314 316 318 320 321 322 323 323 321 320 320 320 321 322 322 322 320 318 315 314 315 316 317 318 319 318 316 314 313 310 305 300 294 283 272 264 260 257 253 249 246 243 240 237 235 234 234 234 233 230 227 228 229 228 226 225 226 229 228
320 319 319 319 319 319 319 317 311 307 306 307 310 311 310 307 305 303 302 302 303 305 308 310 311 312 313 314 316 318 318 319 320 319 319 318 318 318 319 320 319 317 314 313 312 312 314 316 317 317 316 314 312 311 310 306 302 299 294 285 276 269 264 259 255 251 247 244 241 239 236 234 233 233 233 231 228 227 228 228 225 224 224 227 229
318 318 317 316 316 317 317 315 312 309 307 307 308 310 309 307 305 303 301 301 303 304 306 307 309 310 312 314 315 315 317 317 316 315 317 318 318 318 318 316 314 311 310 309 310 312 315 316 315 315 313 311 310 309 307 303 301 301 296 289 283 279 273 264 258 254 249 245 242 240 238 235 233 231 231 231 229 226 227 228 226 224 223 224 227
315 314 314 313 313 313 313 312 310 310 309 307 307 307 306 306 305 301 300 301 303 304 305 305 307 310 312 313 313 314 315 315 313 313 316 318 317 315 312 310 309 308 308 309 310 313 314 315 314 313 311 310 309 307 305 303 303 302 299 294 290 286 281 271 262 256 252 247 243 240 238 236 234 231 230 230 229 227 226 227 227 225 223 223 224
313 313 312 312 311 311 310 309 308 309 310 309 307 305 303 302 302 300 300 301 303 304 304 304 307 310 311 311 311 313 313 312 310 311 313 313 311 309 307 306 306 306 308 311 312 313 314 314 313 312 310 309 308 307 305 304 304 303 301 298 294 291 285 275 266 259 254 249 245 240 238 236 234 232 230 229 229 228 226 225 226 226 225 223 223
313 313 312 311 310 309 308 306 306 306 309 310 308 305 301 298 297 298 299 300 301 302 303 306 308 310 309 309 310 310 309 308 307 308 309 308 307 306 304 304 305 306 309 311 312 313 314 314 312 310 309 308 307 306 305 304 305 306 304 301 297 293 287 279 270 261 255 250 246 242 238 236 234 232 230 228 228 228 227 225 225 226 226 224 223
313 312 312 310 309 308 307 306 304 305 309 311 308 306 302 297 295 296 297 298 299 301 304 307 308 308 307 306 306 305 305 305 305 306 306 306 306 306 305 305 306 308 309 312 313 314 313 313 312 309 307 306 306 306 306 306 307 307 306 303 299 295 290 283 275 266 257 251 247 243 239 236 234 232 230 229 227 227 227 226 225 225 225 225 223
312 312 311 309 309 310 308 306 305 306 309 310 308 305 300 297 295 294 294 296 299 302 304 306 307 305 304 302 301 300 302 303 304 304 305 306 307 308 308 309 309 310 312 313 314 313 313 312 309 305 304 305 305 305 306 307 307 307 307 305 301 296 291 284 277 270 261 253 247 244 240 237 234 232 230 229 227 226 226 226 225 224 224 225 224
311 311 310 310 310 310 307 305 305 306 308 307 306 302 297 295 294 293 293 295 298 301 302 303 303 301 299 298 298 299 301 303 305 306 307 309 310 311 311 312 312 312 313 313 313 312 311 307 303 302 303 304 305 306 307 307 307 308 307 305 302 297 291 284 277 270 263 256 249 244 240 237 235 232 230 228 227 226 225 225 225 224 223 224 224
311 310 310 309 308 307 304 303 304 304 305 305 304 299 294 292 292 292 293 295 297 298 299 300 300 297 295 296 298 301 303 305 307 309 310 312 313 313 313 313 313 313 313 312 311 309 306 302 302 302 303 305 306 307 307 308 309 309 309 306 302 297 291 283 276 269 262 256 250 245 241 237 234 232 230 228 227 226 225 224 224 224 223 223 223
310 309 309 308 307 306 302 301 303 303 303 303 301 296 292 290 290 290 290 291 293 294 295 296 295 294 295 297 299 301 304 305 307 309 311 312 313 313 314 313 313 313 312 311 309 307 305 304 304 304 305 307 307 308 308 309 311 311 309 306 303 298 291 282 274 267 260 254 249 246 241 237 234 232 230 228 226 225 224 223 223 223 222 222 221
308 306 308 307 306 304 301 302 303 301 300 300 297 294 291 289 287 286 286 287 289 291 291 290 290 292 294 296 298 301 303 305 308 309 311 313 314 314 313 313 312 312 311 310 308 307 306 306 307 307 307 308 308 309 310 311 311 311 309 306 303 298 291 283 274 265 257 252 249 246 242 237 233 231 231 228 226 224 223 222 222 222 221 221 220
306 304 305 304 302 302 302 303 302 299 297 297 295 292 290 287 286 284 284 286 289 290 290 289 289 290 292 295 299 302 304 307 309 310 312 313 313 313 312 311 311 310 309 309 309 308 308 308 308 309 309 310 310 310 311 311 310 309 308 306 303 298 291 284 275 265 255 250 248 246 242 237 233 231 230 229 226 224 223 222 221 220 220 220 219
306 303 302 300 300 302 302 300 299 298 295 294 294 293 290 286 285 284 284 287 289 289 289 289 289 290 293 296 300 303 306 308 309 311 312 312 311 311 309 309 308 308 309 309 309 308 308 309 310 310 310 310 310 311 311 310 309 308 307 305 302 297 292 284 274 264 256 249 247 246 243 237 232 230 229 229 227 224 222 221 220 219 219 219 218
301 300 300 301 301 301 300 297 295 294 293 292 295 295 290 285 283 282 283 284 286 287 288 289 291 293 296 299 302 304 307 309 310 311 311 310 309 308 307 307 308 309 309 308 307 308 308 309 310 310 310 311 311 311 311 310 308 308 306 303 300 297 292 285 274 263 256 251 247 246 243 237 232 229 228 229 228 224 222 221 220 219 218 218 218
300 300 301 302 302 301 298 295 293 292 293 294 295 294 289 283 280 280 281 282 284 287 290 293 295 298 300 302 304 306 308 309 310 309 308 308 307 307 307 307 307 306 305 305 305 306 308 309 310 310 310 311 311 311 310 309 308 307 305 302 299 296 292 285 276 265 256 250 247 245 243 238 232 229 228 228 228 225 222 220 219 218 218 217 217
301 302 302 302 302 301 299 297 295 294 293 293 293 291 286 281 279 279 280 282 286 289 292 295 297 299 302 304 306 307 309 309 308 306 306 305 305 305 305 304 303 302 302 303 304 306 308 309 309 310 310 311 310 310 309 308 308 306 304 301 299 296 291 284 276 266 256 249 246 244 242 238 233 230 228 228 229 226 222 220 219 218 217 217 217
301 303 304 303 302 302 300 298 297 295 292 291 289 286 282 279 278 279 283 286 289 291 294 296 298 300 302 304 305 307 308 307 304 302 302 302 302 302 302 301 300 300 301 304 305 307 308 309 309 309 310 309 309 308 308 307 307 305 303 300 297 295 290 283 274 264 255 248 243 242 241 238 234 232 229 228 229 227 223 220 219 218 217 217 216
301 303 303 302 301 301 300 298 297 295 292 289 285 281 280 280 281 284 288 290 292 294 296 297 299 301 302 303 305 306 306 302 300 300 300 300 301 301 300 300 300 302 304 305 307 307 308 308 308 308 308 307 307 307 307 307 306 305 302 299 296 293 289 282 272 262 253 246 241 240 240 238 233 231 230 228 229 228 223 220 219 217 217 217 216
301 302 303 302 301 301 299 297 297 295 293 289 286 285 285 286 287 289 291 293 294 296 297 298 300 301 302 303 305 304 302 300 299 299 298 299 299 299 299 300 302 304 305 306 306 307 307 307 307 307 307 306 306 306 306 306 305 304 301 297 294 291 289 282 272 261 251 245 240 237 239 238 232 228 229 228 228 228 223 220 219 216 216 216 216
302 303 304 303 302 302 300 299 298 296 294 291 289 288 288 289 290 291 292 293 295 296 297 299 300 301 302 302 302 301 299 298 298 298 298 298 299 299 300 302 303 304 305 305 306 307 307 307 306 306 306 306 306 306 305 305 305 303 300 296 292 291 289 282 271 261 251 243 239 236 237 237 232 226 227 228 228 227 223 220 218 216 215 215 215
303 303 303 303 303 302 301 300 298 296 294 292 290 289 289 290 291 291 292 293 294 296 298 299 300 301 301 301 299 297 296 296 296 297 298 299 299 299 300 302 303 303 304 305 306 306 306 306 305 305 306 306 307 306 305 305 304 302 300 296 292 291 289 282 271 261 251 242 237 235 235 236 232 225 224 226 227 226 223 219 218 216 215 215 215
302 302 302 302 302 301 301 299 298 296 294 293 292 291 291 291 291 291 291 292 294 296 297 298 298 299 299 298 296 295 295 295 296 297 298 299 299 299 300 301 302 303 304 305 305 305 305 305 305 306 307 307 307 306 305 305 304 302 299 295 291 291 289 283 273 261 251 243 237 233 232 235 232 224 221 223 224 223 221 218 217 215 214 214 214
301 301 301 301 301 301 300 299 297 296 295 294 293 292 292 292 291 291 291 292 294 296 297 297 298 298 297 296 294 293 294 295 296 298 298 298 299 299 300 301 302 303 304 304 304 304 305 306 306 307 307 307 307 306 306 306 304 302 299 294 291 290 287 283 276 263 252 243 236 230 228 232 231 223 217 219 221 221 220 218 216 215 214 213 214
300 300 300 301 301 300 300 299 298 297 296 295 294 293 293 292 292 292 292 293 295 297 298 298 298 298 298 297 295 294 296 297 298 298 298 298 299 299 300 301 302 303 303 304 304 305 306 307 308 308 308 307 307 307 306 306 304 301 298 294 292 289 285 281 275 266 255 243 233 227 226 229 229 222 214 215 218 219 219 218 216 215 214 213 213
300 300 300 301 301 300 300 299 298 297 295 294 293 293 293 293 293 294 294 295 298 300 299 300 300 299 298 297 296 295 297 298 298 298 299 299 300 300 301 302 302 302 303 304 305 306 307 308 308 308 308 308 308 307 307 306 304 301 297 294 292 289 284 279 272 266 258 244 230 223 223 226 225 220 213 213 216 219 218 217 216 215 214 214 213
Height
10966 10965 10963 10962 10960 10959 10958 10956 10955 10954 10953 10952 10950 10949 10947 10944 10942 10940 10938 10936 10934 10932 10930 10928 10926 10925 10924 10924 10925 10925 10925 10925 10925 10926 10926 10927 10927 10927 10927 10928 10929 10929 10930 10930 10930 10931 10931 10930 10927 10926 10928 10929 10930 10931 10932 10932 10932 10932 10932 10932 10933 10933 10933 10933 10933 10933 10934 10934 10934 10934 10934 10934 10934 10935 10935 10935 10935 10935 10935 10935 10935 10935 10935 10935 10935
10967 10966 10965 10963 10962 10960 10959 10958 10957 10955 10954 10953 10952 10950 10948 10946 10944 10942 10941 10939 10936 10934 10931 10928 10926 10924 10923 10922 10922 10923 10923 10923 10923 10924 10924 10925 10925 10925 10925 10926 10927 10927 10927 10928 10928 10928 10926 10924 10923 10924 10926 10928 10929 10929 10930 10931 10931 10931 10931 10932 10932 10932 10933 10932 10932 10932 10933 10933 10933 10934 10934 10934 10934 10934 10934 10935 10935 10935 10935 10935 10935 10935 10935 10935 10935
10969 10967 10966 10964 10963 10961 10960 10960 10958 10956 10955 10955 10953 10951 10950 10948 10947 10945 10943 10941 10939 10936 10933 10930 10928 10925 10923 10922 10921 10921 10921 10921 10922 10922 10922 10922 10922 10923 10923 10924 10925 10925 10925 10925 10925 10923 10921 10920 10921 10923 10924 10926 10927 10927 10928 10929 10930 10931 10931 10931 10931 10932 10932 10932 10932 10932 10932 10932 10932 10933 10933 10933 10933 10933 10934 10934 10934 10934 10934 10934 10935 10935 10935 10935 10935
10970 10968 10967 10965 10964 10962 10961 10960 10959 10958 10957 10955 10953 10952 10950 10949 10948 10946 10945 10943 10941 10939 10936 10934 10931 10928 10925 10923 10921 10920 10919 10919 10920 10920 10920 10920 10920 10920 10921 10922 10922 10923 10923 10922 10921 10919 10918 10918 10919 10920 10921 10923 10924 10925 10927 10928 10929 10930 10930 10930 10931 10931 10931 10931 10931 10931 10931 10931 10931 10932 10932 10932 10932 10933 10933 10933 10934 10934 10934 10934 10934 10935 10935 10935 10935
10970 10969 10967 10966 10964 10962 10961 10960 10959 10958 10957 10955 10954 10952 10950 10949 10948 10946 10945 10943 10942 10940 10938 10936 10934 10931 10929 10926 10924 10921 10920 10919 10918 10918 10918 10918 10918 10918 10918 10919 10919 10920 10920 10920 10918 10916 10915 10916 10916 10916 10918 10920 10922 10924 10926 10927 10927 10928 10928 10929 10930 10930 10930 10930 10930 10930 10929 10930 10930 10931 10931 10932 10932 10932 10932 10932 10933 10933 10934 10934 10934 10934 10934 10934 10935
10970 10969 10968 10966 10964 10963 10961 10960 10959 10958 10957 10956 10954 10952 10950 10949 10947 10946 10945 10944 10942 10941 10939 10938 10936 10934 10932 10929 10926 10924 10922 10920 10918 10917 10916 10916 10916 10916 10917 10917 10917 10917 10917 10916 10915 10914 10914 10915 10914 10913 10915 10917 10919 10921 10923 10925 10926 10927 10927 10928 10929 10929 10929 10929 10929 10928 10928 10928 10929 10929 10930 10930 10931 10931 10931 10932 10932 10933 10933 10933 10933 10934 10934 10934 10934
10971 10969 10968 10966 10965 10963 10961 10960 10959 10958 10957 10955 10954 10952 10950 10948 10947 10946 10945 10944 10943 10941 10940 10938 10937 10935 10933 10931 10929 10927 10925 10922 10920 10918 10916 10915 10914 10914 10914 10914 10915 10915 10914 10913 10912 10911 10912 10913 10913 10913 10914 10914 10916 10918 10920 10922 10924 10925 10926 10928 10929 10929 10928 10928 10927 10927 10926 10926 10927 10927 10928 10929 10929 10930 10930 10930 10931 10932 10932 10933 10933 10933 10933 10933 10934
10972 10970 10969 10967 10965 10963 10962 10960 10959 10958 10957 10955 10954 10952 10950 10948 10947 10946 10945 10944 10942 10941 10939 10938 10936 10935 10933 10932 10930 10929 10927 10924 10922 10920 10917 10915 10914 10913 10912 10911 10912 10912 10912 10911 10909 10908 10909 10911 10912 10912 10912 10912 10913 10914 10917 10919 10921 10924 10926 10928 10929 10929 10927 10926 10925 10924 10924 10925 10925 10925 10926 10927 10928 10929 10929 10930 10930 10931 10932 10932 10932 10932 10933 10933 10933
10972 10970 10969 10967 10965 10964 10962 10960 10958 10957 10956 10955 10954 10952 10950 10948 10947 10946 10945 10944 10942 10940 10938 10937 10935 10934 10933 10932 10931 10929 10927 10925 10924 10921 10919 10917 10914 10912 10911 10910 10909 10908 10908 10907 10906 10905 10906 10907 10909 10910 10910 10911 10911 10912 10914 10916 10919 10921 10925 10928 10927 10926 10925 10923 10921 10922 10923 10923 10924 10924 10925 10926 10927 10928 10929 10929 10929 10930 10930 10931 10932 10932 10932 10932 10932
10971 10970 10968 10967 10965 10963 10961 10960 10958 10957 10956 10954 10953 10952 10950 10948 10947 10946 10945 10943 10942 10940 10938 10936 10935 10933 10932 10931 10930 10929 10927 10925 10924 10922 10920 10918 10915 10912 10910 10908 10907 10906 10905 10904 10902 10902 10902 10904 10906 10907 10907 10908 10909 10911 10913 10915 10917 10920 10924 10925 10922 10920 10920 10918 10917 10918 10920 10921 10921 10922 10923 10924 10924 10925 10926 10927 10928 10928 10929 10930 10930 10931 10931 10931 10931
10970 10969 10967 10966 10964 10963 10961 10959 10958 10957 10955 10954 10952 10951 10950 10948 10947 10945 10943 10942 10940 10939 10937 10936 10934 10933 10931 10930 10928 10927 10926 10924 10923 10921 10919 10918 10916 10913 10910 10907 10905 10903 10902 10901 10898 10897 10898 10900 10902 10903 10904 10904 10906 10909 10911 10913 10915 10918 10921 10919 10915 10913 10913 10912 10912 10914 10917 10918 10919 10920 10921 10921 10921 10922 10923 10924 10925 10926 10927 10927 10928 10929 10930 10930 10930
10969 10968 10966 10965 10964 10962 10961 10959 10958 10957 10955 10953 10952 10950 10949 10948 10946 10944 10942 10940 10939 10937 10936 10934 10933 10931 10930 10928 10927 10925 10924 10922 10921 10919 10917 10916 10914 10912 10910 10907 10904 10901 10899 10898 10896 10894 10893 10895 10898 10900 10901 10901 10902 10905 10908 10911 10913 10916 10916 10911 10906 10905 10906 10906 10907 10910 10912 10915 10917 10918 10918 10918 10918 10919 10920 10921 10923 10924 10925 10926 10927 10928 10929 10929 10929
10968 10967 10965 10964 10963 10962 10960 10959 10957 10956 10954 10953 10951 10950 10948 10947 10945 10943 10941 10939 10937 10935 10934 10932 10931 10929 10928 10926 10925 10923 10921 10920 10918 10916 10915 10913 10912 10910 10909 10906 10904 10901 10897 10896 10894 10892 10890 10890 10892 10895 10897 10898 10899 10901 10903 10907 10910 10911 10909 10904 10902 10902 10902 10902 10904 10906 10909 10911 10913 10915 10915 10914 10914 10915 10917 10919 10921 10922 10924 10925 10925 10926 10927 10928 10929
10967 10966 10965 10963 10962 10960 10959 10958 10956 10955 10953 10951 10950 10948 10947 10945 10944 10942 10940 10939 10937 10935 10933 10931 10929 10927 10926 10924 10923 10921 10919 10918 10916 10914 10912 10911 10909 10908 10906 10904 10903 10900 10897 10894 10892 10890 10887 10886 10887 10889 10892 10894 10896 10898 10900 10902 10904 10905 10903 10900 10900 10900 10899 10900 10901 10903 10905 10907 10909 10911 10911 10911 10912 10913 10915 10916 10918 10920 10921 10922 10923 10924 10925 10926 10927
10967 10965 10964 10962 10961 10959 10957 10956 10955 10953 10951 10950 10948 10946 10945 10943 10942 10940 10939 10937 10936 10934 10932 10929 10927 10925 10923 10922 10921 10919 10918 10916 10914 10913 10911 10909 10908 10906 10904 10902 10900 10898 10896 10893 10890 10888 10886 10884 10883 10884 10887 10890 10892 10894 10896 10898 10899 10900 10898 10897 10898 10898 10897 10897 10898 10899 10901 10903 10904 10906 10908 10908 10910 10911 10912 10913 10915 10916 10918 10919 10921 10922 10923 10924 10926
10965 10964 10962 10961 10959 10957 10955 10954 10953 10951 10949 10948 10946 10944 10943 10941 10940 10938 10937 10935 10934 10932 10930 10928 10926 10924 10922 10920 10918 10917 10915 10914 10912 10911 10909 10907 10905 10903 10901 10900 10898 10896 10894 10892 10889 10887 10885 10884 10882 10882 10883 10885 10888 10890 10892 10894 10896 10896 10894 10894 10895 10896 10895 10895 10895 10896 10897 10898 10900 10901 10903 10905 10906 10908 10909 10910 10911 10913 10915 10916 10918 10919 10921 10922 10924
10963 10962 10960 10959 10957 10955 10953 10952 10950 10949 10947 10945 10944 10942 10940 10939 10937 10936 10934 10932 10930 10929 10927 10925 10923 10922 10920 10918 10916 10914 10913 10911 10909 10908 10906 10904 10903 10901 10899 10897 10895 10893 10892 10890 10887 10885 10884 10883 10882 10881 10881 10882 10883 10885 10887 10889 10890 10891 10890 10890 10891 10892 10893 10893 10893 10893 10893 10894 10896 10897 10898 10900 10902 10904 10906 10908 10909 10910 10912 10913 10915 10916 10918 10920 10921
10961 10960 10958 10957 10955 10953 10952 10950 10948 10946 10945 10943 10942 10940 10938 10936 10935 10933 10931 10929 10927 10925 10923 10922 10920 10919 10917 10915 10913 10911 10909 10908 10906 10905 10903 10901 10900 10898 10896 10894 10893 10891 10889 10887 10886 10884 10882 10881 10880 10880 10880 10880 10880 10881 10882 10883 10884 10885 10885 10885 10885 10886 10888 10888 10889 10889 10890 10891 10892 10893 10893 10894 10896 10898 10901 10904 10906 10907 10909 10910 10912 10913 10915 10916 10918
10959 10958 10956 10955 10953 10951 10949 10948 10946 10944 10942 10941 10939 10937 10935 10934 10932 10930 10928 10925 10923 10921 10920 10918 10917 10915 10913 10912 10910 10908 10906 10904 10903 10902 10900 10898 10896 10895 10893 10891 10890 10888 10886 10885 10883 10881 10880 10879 10879 10878 10877 10877 10878 10878 10878 10878 10879 10879 10879 10879 10879 10880 10881 10882 10883 10884 10885 10887 10888 10888 10889 10890 10891 10893 10896 10899 10902 10904 10906 10907 10908 10909 10911 10913 10915
10957 10955 10953 10951 10950 10948 10946 10945 10943 10941 10939 10937 10936 10934 10932 10930 10928 10926 10924 10922 10920 10918 10916 10915 10913 10911 10909 10908 10906 10904 10903 10901 10899 10898 10897 10895 10893 10891 10890 10888 10887 10884 10883 10882 10880 10878 10877 10876 10876 10876 10875 10874 10874 10874 10874 10874 10874 10874 10874 10873 10873 10873 10873 10875 10876 10877 10878 10880 10882 10883 10884 10885 10886 10888 10890 10893 10896 10899 10901 10901 10902 10904 10906 10909 10911
10954 10952 10950 10948 10946 10944 10943 10941 10940 10938 10936 10934 10932 10930 10928 10926 10924 10922 10920 10918 10917 10915 10913 10911 10909 10907 10906 10904 10902 10901 10899 10898 10896 10894 10892 10891 10889 10888 10886 10885 10883 10881 10880 10878 10876 10875 10874 10873 10872 10872 10872 10871 10871 10871 10870 10870 10869 10868 10868 10867 10867 10867 10866 10867 10868 10869 10871 10873 10875 10876 10878 10879 10881 10883 10885 10887 10890 10892 10894 10895 10897 10900 10902 10904 10907
10950 10948 10946 10944 10942 10940 10939 10938 10936 10935 10933 10931 10929 10927 10925 10923 10921 10919 10917 10915 10913 10911 10909 10907 10905 10904 10902 10900 10899 10897 10896 10894 10892 10890 10889 10887 10885 10883 10882 10880 10878 10877 10875 10874 10872 10871 10870 10869 10868 10868 10867 10866 10866 10867 10867 10866 10865 10864 10861 10860 10859 10860 10860 10860 10860 10861 10862 10865 10867 10869 10871 10872 10874 10877 10879 10882 10883 10885 10888 10890 10893 10896 10897 10898 10901
10947 10945 10943 10941 10939 10936 10935 10933 10932 10931 10929 10928 10926 10924 10922 10920 10918 10915 10913 10911 10909 10907 10905 10903 10901 10899 10898 10896 10894 10892 10891 10889 10887 10885 10884 10882 10880 10878 10876 10875 10873 10872 10870 10868 10867 10866 10865 10865 10864 10863 10862 10860 10860 10859 10860 10860 10860 10858 10856 10853 10852 10851 10851 10852 10852 10853 10854 10856 10858 10860 10863 10865 10867 10870 10873 10875 10877 10879 10881 10884 10887 10890 10891 10893 10896
10944 10942 10940 10938 10936 10933 10931 10929 10927 10926 10925 10923 10922 10920 10918 10916 10914 10911 10909 10907 10904 10902 10900 10898 10897 10895 10893 10891 10889 10887 10885 10883 10881 10879 10877 10875 10874 10872 10871 10870 10868 10867 10865 10864 10862 10861 10860 10860 10859 10858 10856 10854 10852 10851 10851 10851 10851 10851 10849 10847 10845 10843 10842 10842 10843 10844 10845 10847 10849 10851 10854 10857 10859 10862 10865 10868 10870 10873 10875 10877 10880 10884 10886 10888 10891
10940 10938 10936 10934 10932 10930 10928 10925 10923 10922 10920 10919 10918 10916 10914 10912 10910 10907 10905 10902 10900 10897 10895 10893 10892 10890 10888 10885 10883 10880 10878 10876 10874 10872 10870 10868 10866 10865 10864 10863 10862 10861 10860 10859 10858 10857 10855 10854 10852 10851 10849 10847 10845 10843 10843 10842 10841 10841 10841 10839 10838 10836 10834 10833 10833 10833 10835 10837 10840 10842 10845 10848 10850 10853 10856 10860 10863 10865 10868 10870 10873 10876 10879 10882 10885
10935 10934 10932 10930 10928 10926 10924 10922 10920 10918 10916 10914 10913 10912 10910 10907 10905 10903 10900 10897 10895 10893 10890 10888 10886 10884 10882 10879 10877 10874 10872 10870 10867 10865 10863 10861 10859 10858 10856 10855 10855 10854 10854 10853 10853 10852 10850 10848 10846 10844 10842 10840 10838 10836 10834 10834 10833 10831 10831 10830 10829 10828 10826 10825 10823 10823 10824 10826 10829 10832 10835 10838 10841 10844 10847 10851 10855 10857 10860 10863 10866 10869 10872 10875 10879
10931 10929 10928 10926 10924 10922 10920 10918 10916 10914 10911 10909 10908 10907 10905 10902 10900 10898 10896 10893 10890 10888 10886 10883 10881 10878 10876 10874 10871 10868 10865 10863 10861 10858 10856 10854 10852 10850 10849 10848 10847 10847 10847 10846 10846 10845 10843 10842 10840 10837 10835 10833 10830 10828 10826 10825 10825 10824 10822 10821 10820 10819 10817 10816 10814 10813 10813 10814 10817 10820 10823 10827 10831 10834 10837 10841 10845 10849 10852 10855 10858 10862 10865 10868 10871
10928 10926 10924 10922 10919 10917 10916 10914 10912 10910 10907 10904 10902 10901 10899 10897 10895 10893 10891 10888 10886 10883 10881 10878 10875 10873 10871 10868 10866 10863 10860 10857 10855 10852 10850 10847 10846 10844 10843 10842 10840 10839 10839 10838 10838 10837 10834 10833 10832 10829 10827 10825 10822 10820 10818 10817 10816 10815 10814 10812 10810 10809 10807 10806 10804 10802 10802 10803 10805 10808 10811 10815 10819 10823 10827 10831 10835 10840 10843 10847 10850 10854 10857 10860 10864
10926 10923 10921 10919 10916 10914 10912 10910 10908 10906 10903 10900 10898 10895 10893 10891 10889 10887 10885 10883 10880 10878 10875 10873 10870 10868 10866 10864 10861 10858 10854 10852 10850 10847 10845 10843 10841 10839 10838 10836 10834 10832 10829 10827 10827 10827 10825 10822 10821 10819 10816 10814 10812 10810 10808 10807 10806 10806 10804 10802 10800 10799 10797 10795 10793 10791 10790 10790 10792 10795 10798 10803 10807 10812 10816 10820 10825 10829 10834 10838 10841 10845 10849 10853 10856
10921 10919 10917 10915 10912 10910 10908 10906 10904 10902 10900 10897 10894 10890 10887 10884 10882 10880 10878 10876 10874 10872 10870 10868 10866 10864 10861 10859 10856 10853 10850 10847 10845 10843 10841 10839 10837 10835 10833 10830 10828 10825 10821 10817 10813 10814 10814 10811 10808 10808 10806 10803 10801 10799 10798 10796 10795 10795 10794 10792 10790 10788 10785 10783 10781 10779 10778 10778 10779 10781 10785 10790 10795 10800 10805 10810 10814 10819 10824 10828 10832 10836 10840 10845 10849
10916 10914 10912 10909 10907 10905 10903 10901 10899 10897 10895 10893 10890 10886 10883 10879 10877 10875 10873 10871 10869 10867 10865 10863 10860 10858 10856 10853 10850 10847 10845 10843 10841 10839 10836 10834 10832 10829 10827 10824 10821 10818 10815 10811 10804 10800 10801 10801 10798 10795 10794 10792 10790 10788 10787 10785 10783 10782 10781 10780 10778 10776 10773 10770 10768 10766 10765 10765 10766 10768 10772 10776 10781 10787 10793 10799 10804 10809 10813 10818 10823 10828 10832 10836 10841
10912 10909 10907 10904 10902 10900 10897 10895 10893 10891 10890 10888 10884 10881 10878 10875 10873 10871 10868 10867 10865 10862 10860 10857 10854 10852 10850 10847 10845 10842 10840 10838 10836 10834 10831 10828 10826 10823 10820 10817 10814 10811 10807 10804 10799 10792 10788 10789 10788 10785 10783 10782 10779 10776 10775 10774 10772 10770 10768 10766 10765 10763 10760 10757 10754 10753 10752 10752 10753 10755 10758 10762 10767 10773 10780 10787 10793 10798 10803 10808 10814 10819 10824 10828 10833
10906 10904 10901 10899 10896 10894 10892 10889 10887 10885 10884 10881 10877 10875 10873 10870 10868 10866 10864 10862 10860 10857 10854 10851 10848 10846 10844 10842 10840 10837 10835 10833 10830 10828 10825 10822 10819 10816 10813 10809 10805 10802 10798 10794 10792 10788 10782 10779 10778 10776 10773 10771 10768 10764 10762 10761 10759 10757 10755 10751 10750 10748 10747 10744 10742 10739 10738 10739 10740 10742 10745 10748 10753 10759 10767 10774 10781 10787 10793 10798 10804 10809 10815 10820 10825
10901 10898 10895 10893 10891 10889 10887 10884 10882 10879 10877 10875 10872 10870 10867 10865 10863 10861 10859 10856 10854 10852 10850 10847 10844 10841 10839 10837 10835 10833 10830 10827 10824 10822 10818 10815 10811 10807 10804 10800 10795 10791 10789 10786 10783 10781 10778 10773 10770 10766 10763 10760 10758 10754 10751 10748 10746 10744 10741 10738 10736 10734 10732 10731 10729 10727 10725 10724 10726 10729 10732 10735 10739 10745 10753 10760 10768 10775 10781 10788 10793 10799 10805 10810 10816
10895 10892 10889 10888 10886 10884 10882 10879 10877 10875 10872 10869 10867 10865 10863 10860 10858 10855 10853 10851 10849 10847 10845 10843 10840 10837 10835 10833 10830 10827 10824 10821 10818 10814 10810 10806 10802 10799 10794 10790 10786 10782 10780 10779 10776 10773 10770 10767 10762 10758 10753 10750 10746 10742 10739 10736 10733 10730 10727 10724 10722 10720 10718 10716 10715 10713 10711 10711 10712 10715 10718 10721 10725 10731 10738 10746 10755 10762 10769 10776 10783 10789 10795 10800 10805
10890 10887 10884 10882 10881 10879 10877 10874 10872 10869 10867 10864 10862 10860 10857 10855 10853 10850 10848 10846 10843 10841 10840 10838 10835 10832 10829 10826 10824 10820 10817 10813 10810 10806 10801 10797 10793 10789 10785 10781 10777 10774 10771 10770 10769 10766 10761 10756 10752 10749 10745 10740 10736 10731 10727 10724 10720 10717 10714 10711 10709 10707 10704 10702 10702 10701 10699 10697 10698 10701 10704 10708 10712 10717 10724 10732 10740 10749 10757 10765 10772 10778 10783 10789 10795
10885 10882 10880 10878 10876 10874 10871 10869 10866 10864 10861 10859 10857 10855 10852 10850 10847 10845 10843 10840 10838 10835 10833 10831 10829 10826 10822 10819 10816 10813 10809 10805 10801 10797 10792 10788 10784 10780 10776 10773 10770 10767 10764 10761 10759 10756 10752 10747 10741 10737 10734 10731 10726 10721 10716 10712 10708 10704 10701 10699 10696 10694 10691 10688 10688 10688 10686 10685 10685 10687 10690 10695 10700 10705 10711 10718 10726 10735 10744 10752 10759 10765 10772 10778 10785
10880 10878 10876 10873 10871 10869 10866 10863 10861 10859 10857 10854 10852 10849 10847 10844 10841 10839 10837 10835 10832 10829 10826 10824 10821 10818 10814 10811 10807 10803 10800 10796 10791 10787 10783 10779 10775 10771 10768 10765 10762 10759 10756 10752 10748 10745 10742 10738 10732 10726 10722 10718 10714 10710 10706 10701 10697 10693 10690 10688 10684 10681 10680 10677 10675 10674 10674 10673 10672 10673 10677 10683 10688 10694 10700 10705 10712 10721 10730 10738 10745 10753 10761 10768 10775
10874 10873 10871 10869 10866 10864 10862 10859 10856 10854 10851 10848 10846 10843 10841 10838 10835 10833 10831 10828 10825 10821 10818 10815 10813 10809 10806 10802 10798 10794 10790 10786 10781 10777 10774 10770 10767 10763 10760 10757 10754 10750 10746 10743 10738 10734 10731 10728 10722 10716 10712 10707 10701 10698 10695 10690 10687 10683 10680 10678 10673 10669 10668 10666 10663 10661 10662 10661 10661 10661 10665 10672 10677 10682 10687 10692 10699 10707 10715 10724 10733 10742 10750 10757 10764
10868 10867 10866 10864 10862 10859 10856 10854 10851 10848 10845 10842 10840 10837 10834 10831 10828 10826 10824 10821 10818 10814 10811 10807 10804 10800 10796 10792 10789 10784 10780 10776 10772 10768 10765 10762 10759 10755 10752 10749 10745 10741 10737 10733 10728 10723 10719 10717 10712 10705 10701 10697 10691 10686 10683 10679 10677 10673 10669 10666 10663 10658 10656 10653 10651 10650 10650 10650 10650 10651 10655 10661 10666 10670 10675 10681 10687 10693 10701 10711 10721 10730 10738 10747 10754
10862 10862 10861 10858 10856 10853 10850 10848 10845 10842 10839 10836 10833 10830 10827 10825 10821 10818 10816 10813 10810 10806 10802 10798 10794 10791 10787 10782 10779 10775 10771 10767 10764 10760 10757 10753 10751 10747 10744 10741 10737 10734 10730 10725 10719 10713 10707 10704 10700 10694 10690 10686 10681 10677 10673 10669 10667 10664 10658 10654 10651 10647 10645 10642 10639 10638 10640 10640 10641 10643 10645 10650 10655 10660 10665 10670 10675 10681 10689 10699 10709 10718 10727 10737 10745
10856 10856 10855 10852 10850 10847 10844 10842 10839 10836 10834 10831 10828 10824 10821 10818 10815 10810 10807 10804 10801 10797 10793 10789 10785 10781 10777 10773 10769 10766 10763 10759 10755 10752 10749 10746 10743 10740 10737 10733 10730 10726 10722 10717 10711 10706 10699 10693 10688 10684 10680 10675 10671 10667 10663 10659 10657 10653 10648 10642 10638 10636 10635 10633 10628 10627 10628 10631 10632 10634 10636 10640 10646 10651 10655 10659 10663 10670 10678 10687 10697 10708 10718 10727 10736
10851 10850 10849 10846 10843 10840 10838 10836 10833 10831 10828 10825 10822 10819 10815 10812 10808 10803 10800 10796 10792 10788 10784 10780 10777 10773 10769 10765 10762 10759 10758 10753 10748 10744 10741 10738 10735 10732 10728 10725 10721 10717 10713 10708 10702 10696 10691 10685 10678 10674 10671 10666 10661 10657 10653 10649 10646 10642 10637 10630 10626 10624 10624 10623 10619 10616 10617 10621 10624 10625 10625 10631 10638 10641 10645 10650 10653 10660 10668 10677 10687 10698 10708 10718 10727
10844 10844 10844 10841 10837 10834 10832 10829 10827 10824 10821 10818 10816 10812 10808 10805 10801 10796 10791 10787 10783 10779 10776 10772 10768 10765 10761 10758 10755 10753 10751 10747 10741 10737 10733 10729 10726 10722 10717 10714 10711 10707 10702 10697 10692 10686 10681 10676 10669 10664 10660 10656 10652 10647 10643 10639 10635 10631 10627 10620 10615 10614 10614 10612 10610 10607 10608 10612 10616 10616 10615 10620 10628 10633 10636 10640 10643 10649 10659 10668 10678 10689 10698 10708 10716
10837 10837 10836 10834 10830 10827 10824 10822 10819 10817 10814 10811 10808 10803 10800 10797 10793 10787 10782 10778 10774 10770 10766 10764 10760 10757 10754 10751 10747 10745 10742 10738 10733 10729 10725 10722 10717 10712 10707 10703 10699 10695 10691 10685 10681 10676 10671 10666 10660 10655 10650 10646 10643 10638 10633 10630 10625 10620 10616 10610 10605 10604 10604 10602 10599 10598 10601 10604 10606 10608 10606 10608 10619 10627 10626 10627 10633 10641 10651 10661 10669 10678 10687 10695 10705
10830 10828 10826 10824 10821 10819 10816 10813 10811 10808 10805 10803 10799 10794 10791 10788 10784 10779 10773 10769 10765 10761 10758 10756 10753 10749 10746 10743 10740 10736 10733 10729 10725 10720 10715 10712 10707 10701 10696 10692 10687 10684 10680 10675 10669 10665 10660 10655 10650 10646 10641 10637 10633 10627 10623 10620 10616 10610 10605 10600 10596 10595 10594 10592 10590 10591 10593 10595 10596 10599 10598 10600 10611 10618 10616 10617 10625 10634 10644 10653 10659 10666 10675 10683 10693
10822 10820 10817 10815 10813 10810 10808 10805 10803 10800 10796 10793 10789 10785 10782 10779 10775 10770 10766 10762 10758 10754 10751 10748 10745 10741 10737 10734 10730 10726 10722 10720 10715 10710 10706 10702 10696 10691 10685 10680 10675 10672 10668 10664 10658 10653 10650 10646 10641 10636 10632 10627 10623 10618 10612 10609 10606 10601 10596 10590 10587 10587 10585 10582 10582 10583 10584 10585 10587 10590 10592 10593 10600 10607 10607 10610 10619 10628 10636 10642 10647 10655 10663 10672 10681
10816 10813 10810 10807 10805 10802 10799 10797 10794 10791 10787 10783 10779 10775 10773 10770 10766 10762 10758 10754 10750 10746 10743 10740 10736 10733 10730 10725 10720 10715 10712 10709 10705 10700 10696 10692 10687 10681 10676 10670 10664 10660 10656 10653 10648 10642 10638 10636 10632 10627 10622 10617 10612 10607 10602 10599 10595 10591 10587 10581 10579 10580 10576 10572 10574 10575 10576 10577 10578 10584 10588 10586 10588 10597 10602 10605 10613 10620 10624 10629 10635 10644 10652 10660 10668
10810 10807 10804 10801 10797 10794 10791 10788 10785 10782 10778 10773 10769 10766 10764 10761 10758 10755 10750 10746 10742 10737 10734 10731 10727 10725 10722 10716 10710 10706 10702 10700 10696 10690 10686 10681 10677 10671 10666 10661 10655 10649 10645 10642 10638 10633 10627 10624 10620 10616 10611 10606 10602 10597 10592 10588 10584 10581 10578 10573 10571 10571 10568 10565 10566 10567 10568 10568 10571 10578 10582 10577 10578 10590 10597 10600 10604 10607 10612 10619 10626 10634 10641 10649 10657
10802 10799 10796 10793 10790 10786 10783 10780 10777 10772 10768 10763 10760 10758 10756 10752 10749 10747 10742 10738 10734 10729 10725 10722 10719 10716 10712 10707 10701 10696 10692 10688 10685 10680 10675 10671 10666 10661 10656 10651 10645 10640 10635 10631 10628 10624 10619 10613 10608 10603 10599 10595 10591 10587 10582 10578 10574 10571 10569 10566 10563 10562 10560 10558 10559 10560 10560 10561 10565 10572 10574 10570 10572 10583 10590 10592 10593 10596 10603 10613 10619 10625 10632 10641 10649
10794 10791 10788 10785 10781 10778 10775 10772 10768 10764 10759 10755 10752 10750 10747 10743 10741 10738 10733 10729 10726 10720 10716 10714 10711 10706 10702 10699 10693 10687 10682 10678 10674 10669 10665 10660 10655 10650 10645 10640 10635 10630 10626 10622 10618 10614 10610 10604 10598 10592 10587 10583 10580 10576 10573 10568 10564 10561 10560 10558 10556 10554 10552 10551 10553 10554 10553 10554 10559 10565 10567 10564 10566 10574 10581 10583 10584 10588 10598 10606 10611 10617 10625 10633 10642